Torna al catalogo

STARLINK-30532

AttivoComunicazioniVLEO
NORAD 58070·PAYLOAD·🇺🇸 United States

Lanciato Oct 13, 2023 da Cape Canaveral Space Force Station

Loading…

Prossimi Passaggi (prossime 24 ore)

TLE

AggiornatoSource: CelesTrak SupGP

Epoca: Sep 15, 2026, 02:46 UTC

1 58070C 23158V   26258.11576389 -.00026460  00000+0 -95879-3 0  2580
2 58070  43.0010  37.2877 0001461 264.5200 323.7209 15.27578101    19

Traccia STARLINK-30532 in tempo reale con AllMySat

Download on the App Store